Weather History for Jamestown, NY

Change the Weather History Date:

Sunday, October 21, 2012

  Actual Average Record
Temperature  
Mean Temperature 48 °F -  
Max Temperature 53 °F 55 °F 75 °F (1979)
Min Temperature 42 °F 34 °F 24 °F (1986)
Degree Days  
Heating Degree Days 18    
Moisture  
Dew Point 40 °F    
Average Humidity 77    
Maximum Humidity 93    
Minimum Humidity 54    
Precipitation  
Precipitation 0.05 in - - ()
Sea Level Pressure  
Sea Level Pressure 30.03 in    
Wind  
Wind Speed 8 mph (West)    
Max Wind Speed 16 mph    
Max Gust Speed 22 mph    
Visibility 9 miles    
Events      
Averages and records for this station are not official NWS values.
T = Trace of Precipitation, MM = Missing Value Source: NWS Daily Summary

Daily Weather History Graph

Daily Weather History Graph

Search for Another Location

Airport:

Trip Planner

Search our weather history database for the weather conditions in past years. The results will help you decide how hot, cold, wet, or windy it might be!

Date:

Astronomy

Oct. 21, 2012 Rise Set
Actual Time 7:37 AM EDT 6:25 PM EDT
Civil Twilight 7:08 AM EDT 6:53 PM EDT
Nautical Twilight 6:36 AM EDT 7:26 PM EDT
Astronomical Twilight 6:03 AM EDT 7:58 PM EDT
Moon 1:59 PM EDT (10/21) No Moon Set
Length of Visible Light 11h 45m
Length of Day
10h 48m
Waxing Crescent, 45% of the Moon is Illuminated
Oct 21
Waxing Crescent
Oct 21
First Quarter
Oct 29
Full
Nov 6
Last Quarter
Nov 13
New

Hourly Weather History & Observations

Time (EDT) Temp. Windchill Dew Point Humidity Pressure Visibility Wind Dir Wind Speed Gust Speed Precip Events Conditions
12:15 AM 44.6 °F 40.7 °F 42.8 °F 93% 29.86 in 10.0 mi WNW 6.9 mph - N/A   Overcast
12:35 AM 46.4 °F 44.3 °F 42.8 °F 87% 29.87 in 10.0 mi WNW 4.6 mph - N/A   Overcast
12:55 AM 46.4 °F 42.9 °F 42.8 °F 87% 29.87 in 8.0 mi WNW 6.9 mph - 0.02 in   Overcast
1:15 AM 44.6 °F 40.2 °F 41.0 °F 87% 29.88 in 10.0 mi WNW 8.1 mph - 0.02 in   Overcast
1:35 AM 44.6 °F 40.7 °F 42.8 °F 93% 29.88 in 7.0 mi West 6.9 mph - 0.02 in   Mostly Cloudy
1:55 AM 44.6 °F 40.7 °F 42.8 °F 93% 29.89 in 10.0 mi West 6.9 mph - 0.02 in   Overcast
2:15 AM 44.6 °F 41.4 °F 42.8 °F 93% 29.89 in 10.0 mi WSW 5.8 mph - N/A   Mostly Cloudy
2:35 AM 44.6 °F 41.4 °F 42.8 °F 93% 29.89 in 8.0 mi WSW 5.8 mph - N/A   Overcast
2:55 AM 44.6 °F 40.2 °F 42.8 °F 93% 29.90 in 10.0 mi WSW 8.1 mph - N/A   Mostly Cloudy
3:15 AM 44.6 °F 40.7 °F 42.8 °F 93% 29.91 in 7.0 mi West 6.9 mph - 0.01 in   Mostly Cloudy
3:35 AM 44.6 °F 40.2 °F 42.8 °F 93% 29.92 in 8.0 mi WSW 8.1 mph - 0.01 in   Overcast
3:55 AM 44.6 °F 40.7 °F 42.8 °F 93% 29.92 in 10.0 mi West 6.9 mph - 0.01 in   Mostly Cloudy
4:15 AM 44.6 °F 40.2 °F 42.8 °F 93% 29.93 in 10.0 mi West 8.1 mph - N/A   Overcast
4:35 AM 44.6 °F 40.7 °F 41.0 °F 87% 29.94 in 10.0 mi WSW 6.9 mph - N/A   Overcast
4:55 AM 44.6 °F 40.7 °F 41.0 °F 87% 29.95 in 10.0 mi WSW 6.9 mph - N/A   Mostly Cloudy
5:15 AM 42.8 °F 40.1 °F 41.0 °F 93% 29.95 in 2.5 mi SW 4.6 mph - N/A   Mostly Cloudy
5:35 AM 42.8 °F 40.1 °F 41.0 °F 93% 29.96 in 2.0 mi SW 4.6 mph - N/A   Mostly Cloudy
5:55 AM 42.8 °F 39.3 °F 39.2 °F 87% 29.97 in 0.8 mi SW 5.8 mph - N/A   Overcast
6:15 AM 42.8 °F 39.3 °F 41.0 °F 93% 29.98 in 5.0 mi WSW 5.8 mph - N/A   Mostly Cloudy
6:35 AM 42.8 °F 39.3 °F 39.2 °F 87% 29.99 in 6.0 mi SW 5.8 mph - N/A   Scattered Clouds
6:55 AM 42.8 °F 39.3 °F 41.0 °F 93% 29.99 in 4.0 mi SW 5.8 mph - N/A   Overcast
7:15 AM 42.8 °F 39.3 °F 41.0 °F 93% 29.99 in 4.0 mi WSW 5.8 mph - N/A   Overcast
7:35 AM 44.6 °F 39.7 °F 42.8 °F 93% 30.00 in 7.0 mi WSW 9.2 mph - N/A   Overcast
7:55 AM 44.6 °F 40.2 °F 41.0 °F 87% 30.00 in 6.0 mi WSW 8.1 mph - N/A   Mostly Cloudy
8:15 AM 44.6 °F 40.7 °F 42.8 °F 93% 30.01 in 4.0 mi WSW 6.9 mph - N/A   Mostly Cloudy
8:35 AM 44.6 °F 40.7 °F 42.8 °F 93% 30.02 in 3.0 mi WSW 6.9 mph - N/A   Overcast
8:55 AM 44.6 °F 39.7 °F 42.8 °F 93% 30.02 in 3.0 mi WSW 9.2 mph - N/A   Overcast
9:15 AM 46.4 °F 41.9 °F 42.8 °F 87% 30.03 in 8.0 mi WSW 9.2 mph - N/A   Overcast
9:35 AM 46.4 °F 41.9 °F 44.6 °F 93% 30.03 in 10.0 mi West 9.2 mph - N/A   Overcast
9:55 AM 46.4 °F 41.9 °F 44.6 °F 93% 30.03 in 10.0 mi WSW 9.2 mph - N/A   Overcast
10:15 AM 48.2 °F - 42.8 °F 82% 30.04 in 10.0 mi West 10.4 mph - N/A   Overcast
10:35 AM 48.2 °F - 42.8 °F 82% 30.05 in 10.0 mi West 9.2 mph - N/A   Overcast
10:55 AM 48.2 °F - 42.8 °F 82% 30.05 in 10.0 mi West 16.1 mph - N/A   Overcast
11:15 AM 48.2 °F - 42.8 °F 82% 30.05 in 10.0 mi West 12.7 mph - N/A   Overcast
11:35 AM 50.0 °F - 42.8 °F 76% 30.06 in 10.0 mi WSW 13.8 mph 21.9 mph N/A   Overcast
11:55 AM 50.0 °F - 42.8 °F 76% 30.07 in 10.0 mi WSW 15.0 mph 20.7 mph N/A   Overcast
12:15 PM 51.8 °F - 42.8 °F 71% 30.07 in 10.0 mi West 16.1 mph - N/A   Overcast
12:35 PM 51.8 °F - 41.0 °F 67% 30.07 in 10.0 mi West 11.5 mph - N/A   Mostly Cloudy
12:55 PM 51.8 °F - 42.8 °F 71% 30.07 in 10.0 mi West 13.8 mph - N/A   Scattered Clouds
1:15 PM 51.8 °F - 41.0 °F 67% 30.06 in 10.0 mi West 15.0 mph - N/A   Scattered Clouds
1:35 PM 51.8 °F - 41.0 °F 67% 30.06 in 10.0 mi West 16.1 mph 19.6 mph N/A   Partly Cloudy
1:55 PM 53.6 °F - 39.2 °F 58% 30.06 in 10.0 mi West 13.8 mph 19.6 mph N/A   Mostly Cloudy
2:15 PM 53.6 °F - 39.2 °F 58% 30.06 in 10.0 mi WSW 13.8 mph - N/A   Mostly Cloudy
2:35 PM 53.6 °F - 39.2 °F 58% 30.06 in 10.0 mi West 10.4 mph - N/A   Overcast
2:55 PM 53.6 °F - 39.2 °F 58% 30.06 in 10.0 mi WSW 15.0 mph - N/A   Overcast
3:15 PM 53.6 °F - 39.2 °F 58% 30.05 in 10.0 mi West 13.8 mph 18.4 mph N/A   Mostly Cloudy
3:35 PM 53.6 °F - 39.2 °F 58% 30.06 in 10.0 mi West 10.4 mph - N/A   Mostly Cloudy
3:55 PM 51.8 °F - 37.4 °F 58% 30.07 in 10.0 mi WNW 13.8 mph 18.4 mph N/A   Mostly Cloudy
4:15 PM 53.6 °F - 37.4 °F 54% 30.07 in 10.0 mi West 12.7 mph 19.6 mph N/A   Scattered Clouds
4:35 PM 53.6 °F - 37.4 °F 54% 30.07 in 10.0 mi West 16.1 mph - N/A   Partly Cloudy
4:55 PM 51.8 °F - 37.4 °F 58% 30.08 in 10.0 mi WNW 15.0 mph 18.4 mph N/A   Clear
5:15 PM 51.8 °F - 37.4 °F 58% 30.08 in 10.0 mi West 11.5 mph - N/A   Clear
5:35 PM 51.8 °F - 37.4 °F 58% 30.09 in 10.0 mi West 8.1 mph - N/A   Clear
5:55 PM 50.0 °F - 37.4 °F 62% 30.08 in 10.0 mi West 9.2 mph - N/A   Clear
6:15 PM 48.2 °F - 37.4 °F 66% 30.09 in 10.0 mi West 10.4 mph - N/A   Clear
6:35 PM 48.2 °F - 39.2 °F 71% 30.09 in 10.0 mi West 6.9 mph - N/A   Clear
6:55 PM 48.2 °F - 37.4 °F 66% 30.09 in 10.0 mi West 9.2 mph - N/A   Clear
7:15 PM 46.4 °F 42.4 °F 37.4 °F 71% 30.09 in 10.0 mi West 8.1 mph - N/A   Clear
7:35 PM 46.4 °F 43.5 °F 37.4 °F 71% 30.10 in 10.0 mi West 5.8 mph - N/A   Clear
7:55 PM 46.4 °F 43.5 °F 37.4 °F 71% 30.10 in 10.0 mi West 5.8 mph - N/A   Clear
8:15 PM 44.6 °F 41.4 °F 37.4 °F 76% 30.10 in 10.0 mi WSW 5.8 mph - N/A   Clear
8:35 PM 44.6 °F 42.2 °F 37.4 °F 76% 30.10 in 10.0 mi WSW 4.6 mph - N/A   Clear
8:55 PM 46.4 °F 45.2 °F 37.4 °F 71% 30.11 in 10.0 mi West 3.5 mph - N/A   Clear
9:15 PM 46.4 °F 44.3 °F 35.6 °F 66% 30.11 in 10.0 mi West 4.6 mph - N/A   Clear
9:35 PM 44.6 °F 40.7 °F 35.6 °F 71% 30.11 in 10.0 mi West 6.9 mph - N/A   Clear
9:55 PM 44.6 °F 40.2 °F 35.6 °F 71% 30.11 in 10.0 mi West 8.1 mph - N/A   Clear
10:15 PM 44.6 °F 40.2 °F 35.6 °F 71% 30.11 in 10.0 mi West 8.1 mph - N/A   Clear
10:35 PM 44.6 °F 40.7 °F 35.6 °F 71% 30.11 in 10.0 mi West 6.9 mph - N/A   Clear
10:55 PM 44.6 °F 41.4 °F 35.6 °F 71% 30.11 in 10.0 mi West 5.8 mph - N/A   Clear
11:15 PM 44.6 °F 42.2 °F 33.8 °F 66% 30.12 in 10.0 mi West 4.6 mph - N/A   Clear
11:35 PM 44.6 °F 42.2 °F 35.6 °F 71% 30.11 in 10.0 mi WSW 4.6 mph - N/A   Clear
11:55 PM 42.8 °F 40.1 °F 33.8 °F 70% 30.12 in 10.0 mi SW 4.6 mph - N/A   Clear